Tehachapi, CA

3:45 AM PST on January 23, 2017 (GMT -0800)
Tehachapi Municipal

Weather History for KTSP - November, 2012

Change the Weather History Date:

Thursday, November 15, 2012

  Actual Average Record
Temperature  
Mean Temperature 52 °F -  
Max Temperature 57 °F 58 °F 71 °F (2016)
Min Temperature 46 °F 34 °F 28 °F (2015)
Degree Days  
Heating Degree Days 14    
Growing Degree Days 2 (Base 50)    
Moisture  
Dew Point 18 °F    
Average Humidity 29    
Maximum Humidity 66    
Minimum Humidity 16    
Precipitation  
Precipitation 0.02 in - - ()
Sea Level Pressure  
Sea Level Pressure 30.12 in    
Wind  
Wind Speed 11 mph (ESE)    
Max Wind Speed 21 mph    
Max Gust Speed 30 mph    
Visibility 10 miles    
Events Rain    
Averages and records for this station are not official NWS values.
T = Trace of Precipitation, MM = Missing Value Source: NWS Daily Summary

Daily Weather History Graph

Daily Weather History Graph

Search for Another Location

Airport or City:

Trip Planner

Search our weather history database for the weather conditions in past years. The results will help you decide how hot, cold, wet, or windy it might be!

Date:

Astronomy

Nov. 15, 2012 Rise Set
Actual Time 6:29 AM PST 4:47 PM PST
Civil Twilight 6:02 AM PST 5:14 PM PST
Nautical Twilight 5:31 AM PST 5:45 PM PST
Astronomical Twilight 5:01 AM PST 6:15 PM PST
Moon 8:27 AM PST (11/15) 6:46 PM PST (11/15)
Length of Visible Light 11h 12m
Length of Day
10h 18m
Waxing Crescent, 5% of the Moon is Illuminated
Nov 15
Waxing Crescent
Nov 20
First Quarter
Nov 28
Full
Dec 6
Last Quarter
Dec 13
New

Hourly Weather History & Observations

Time (PST) Temp. Windchill Dew Point Humidity Pressure Visibility Wind Dir Wind Speed Gust Speed Precip Events Conditions
12:15 AM 48.2 °F - 10.4 °F 22% 30.14 in 10.0 mi ESE 10.4 mph - N/A   Clear
12:35 AM 46.4 °F 40.7 °F 10.4 °F 23% 30.13 in 10.0 mi ESE 12.7 mph - N/A   Clear
12:55 AM 51.8 °F - 8.6 °F 18% 30.12 in 10.0 mi ESE 11.5 mph - N/A   Clear
1:15 AM 51.8 °F - 8.6 °F 18% 30.13 in 10.0 mi East 10.4 mph - N/A   Clear
1:35 AM 53.6 °F - 8.6 °F 16% 30.12 in 10.0 mi ESE 10.4 mph - N/A   Clear
1:55 AM 51.8 °F - 8.6 °F 18% 30.13 in 10.0 mi East 6.9 mph - N/A   Clear
2:15 AM 51.8 °F - 8.6 °F 18% 30.13 in 10.0 mi East 9.2 mph - N/A   Clear
2:35 AM 51.8 °F - 8.6 °F 18% 30.13 in 10.0 mi East 10.4 mph - N/A   Clear
2:55 AM 50.0 °F - 10.4 °F 20% 30.13 in 10.0 mi SE 6.9 mph - N/A   Clear
3:15 AM 48.2 °F - 10.4 °F 22% 30.13 in 10.0 mi ESE 9.2 mph - N/A   Clear
3:35 AM 50.0 °F - 10.4 °F 20% 30.11 in 10.0 mi ESE 8.1 mph - N/A   Clear
3:55 AM 48.2 °F - 10.4 °F 22% 30.11 in 10.0 mi ESE 12.7 mph - N/A   Clear
4:15 AM 51.8 °F - 8.6 °F 18% 30.12 in 10.0 mi East 9.2 mph - N/A   Clear
4:35 AM 51.8 °F - 10.4 °F 19% 30.13 in 10.0 mi East 11.5 mph 18.4 mph N/A   Clear
4:55 AM 51.8 °F - 10.4 °F 19% 30.12 in 10.0 mi ESE 13.8 mph - N/A   Clear
5:15 AM 50.0 °F - 10.4 °F 20% 30.12 in 10.0 mi ESE 13.8 mph - N/A   Clear
5:35 AM 50.0 °F - 10.4 °F 20% 30.12 in 10.0 mi ESE 12.7 mph - N/A   Clear
5:55 AM 50.0 °F - 10.4 °F 20% 30.12 in 10.0 mi ESE 12.7 mph - N/A   Clear
6:15 AM 50.0 °F - 10.4 °F 20% 30.12 in 10.0 mi ESE 15.0 mph 20.7 mph N/A   Clear
6:35 AM 50.0 °F - 10.4 °F 20% 30.13 in 10.0 mi East 13.8 mph 19.6 mph N/A   Clear
6:55 AM 50.0 °F - 10.4 °F 20% 30.14 in 10.0 mi ESE 12.7 mph - N/A   Clear
7:15 AM 48.2 °F - 10.4 °F 22% 30.14 in 10.0 mi ESE 12.7 mph 16.1 mph N/A   Clear
7:35 AM 50.0 °F - 10.4 °F 20% 30.15 in 10.0 mi ESE 13.8 mph - N/A   Clear
7:55 AM 51.8 °F - 10.4 °F 19% 30.14 in 10.0 mi ESE 10.4 mph - N/A   Clear
8:15 AM 51.8 °F - 10.4 °F 19% 30.15 in 10.0 mi ESE 12.7 mph - N/A   Clear
8:35 AM 53.6 °F - 10.4 °F 18% 30.15 in 10.0 mi East 10.4 mph - N/A   Clear
8:55 AM 55.4 °F - 12.2 °F 18% 30.16 in 10.0 mi ESE 8.1 mph - N/A   Clear
9:15 AM 55.4 °F - 10.4 °F 17% 30.17 in 10.0 mi SE 16.1 mph 19.6 mph N/A   Clear
9:35 AM 57.2 °F - 10.4 °F 16% 30.16 in 10.0 mi ESE 18.4 mph - N/A   Clear
9:55 AM 57.2 °F - 10.4 °F 16% 30.17 in 10.0 mi ESE 16.1 mph 21.9 mph N/A   Clear
10:15 AM 57.2 °F - 10.4 °F 16% 30.17 in 10.0 mi SE 18.4 mph - N/A   Clear
10:35 AM 57.2 °F - 10.4 °F 16% 30.16 in 10.0 mi ESE 15.0 mph - N/A   Clear
10:55 AM 57.2 °F - 10.4 °F 16% 30.16 in 10.0 mi ESE 17.3 mph 20.7 mph N/A   Partly Cloudy
11:15 AM 57.2 °F - 10.4 °F 16% 30.16 in 10.0 mi ESE 15.0 mph 19.6 mph N/A   Clear
11:35 AM 57.2 °F - 10.4 °F 16% 30.15 in 10.0 mi ESE 17.3 mph 21.9 mph N/A   Clear
11:55 AM 57.2 °F - 10.4 °F 16% 30.13 in 10.0 mi ESE 16.1 mph - N/A   Clear
12:15 PM 57.2 °F - 10.4 °F 16% 30.13 in 10.0 mi ESE 18.4 mph 24.2 mph N/A   Clear
12:35 PM 57.2 °F - 10.4 °F 16% 30.13 in 10.0 mi ESE 19.6 mph 27.6 mph N/A   Clear
12:55 PM 57.2 °F - 10.4 °F 16% 30.13 in 10.0 mi ESE 18.4 mph 27.6 mph N/A   Clear
1:15 PM 57.2 °F - 10.4 °F 16% 30.12 in 10.0 mi ESE 16.1 mph 26.5 mph N/A   Clear
1:35 PM 57.2 °F - 10.4 °F 16% 30.12 in 10.0 mi East 15.0 mph 20.7 mph N/A   Mostly Cloudy
1:55 PM 57.2 °F - 12.2 °F 17% 30.11 in 9.0 mi East 17.3 mph 20.7 mph N/A Rain Light Rain
2:15 PM 55.4 °F - 14.0 °F 20% 30.11 in 9.0 mi East 15.0 mph - N/A Rain Light Rain
2:35 PM 53.6 °F - 23.0 °F 30% 30.11 in 6.0 mi East 13.8 mph - N/A Rain Light Rain
2:55 PM 51.8 °F - 28.4 °F 41% 30.10 in 7.0 mi East 11.5 mph - N/A Rain Light Rain
3:15 PM 53.6 °F - 26.6 °F 35% 30.10 in 10.0 mi East 15.0 mph 18.4 mph N/A   Mostly Cloudy
3:35 PM 53.6 °F - 26.6 °F 35% 30.10 in 10.0 mi East 10.4 mph - N/A   Mostly Cloudy
3:55 PM 53.6 °F - 24.8 °F 33% 30.09 in 10.0 mi East 9.2 mph - N/A Rain Light Rain
4:15 PM 55.4 °F - 23.0 °F 29% 30.09 in 10.0 mi East 10.4 mph - N/A   Overcast
4:35 PM 55.4 °F - 17.6 °F 23% 30.08 in 10.0 mi ENE 5.8 mph - N/A   Overcast
4:55 PM 53.6 °F - 26.6 °F 35% 30.10 in 7.0 mi East 8.1 mph - N/A Rain Light Rain
5:15 PM 48.2 °F - 32.0 °F 54% 30.11 in 6.0 mi Calm Calm - 0.01 in Rain Light Rain
5:35 PM 48.2 °F - 30.2 °F 50% 30.10 in 10.0 mi East 5.8 mph - 0.01 in   Overcast
5:55 PM 50.0 °F - 24.8 °F 37% 30.11 in 10.0 mi Calm Calm - 0.01 in   Overcast
6:15 PM 48.2 °F - 32.0 °F 54% 30.11 in 10.0 mi Calm Calm - N/A   Overcast
6:35 PM 48.2 °F - 32.0 °F 54% 30.12 in 10.0 mi Calm Calm - N/A   Overcast
6:55 PM 48.2 °F - 35.6 °F 62% 30.12 in 10.0 mi Calm Calm - N/A   Overcast
7:15 PM 48.2 °F - 35.6 °F 62% 30.12 in 10.0 mi Calm Calm - N/A   Overcast
7:35 PM 48.2 °F - 35.6 °F 62% 30.12 in 10.0 mi Calm Calm - N/A   Overcast
7:55 PM 46.4 °F 43.5 °F 35.6 °F 66% 30.12 in 10.0 mi ESE 5.8 mph - N/A   Overcast
8:15 PM 48.2 °F - 35.6 °F 62% 30.12 in 10.0 mi Calm Calm - N/A   Overcast
8:35 PM 48.2 °F - 33.8 °F 58% 30.13 in 10.0 mi SSW 6.9 mph - N/A   Overcast
8:55 PM 46.4 °F 45.2 °F 35.6 °F 66% 30.13 in 10.0 mi NNE 3.5 mph - N/A   Overcast
9:15 PM 48.2 °F - 32.0 °F 54% 30.11 in 10.0 mi East 8.1 mph - N/A Rain Light Rain
9:35 PM 48.2 °F - 26.6 °F 43% 30.10 in 9.0 mi East 11.5 mph 19.6 mph 0.01 in Rain Light Rain
9:55 PM 48.2 °F - 24.8 °F 40% 30.09 in 10.0 mi East 20.7 mph 28.8 mph 0.01 in   Overcast
10:15 PM 50.0 °F - 24.8 °F 37% 30.09 in 10.0 mi ESE 16.1 mph 29.9 mph N/A Rain Light Rain
10:35 PM 51.8 °F - 23.0 °F 33% 30.09 in 10.0 mi East 15.0 mph 29.9 mph N/A   Overcast
10:55 PM 50.0 °F - 23.0 °F 35% 30.10 in 10.0 mi East 15.0 mph 26.5 mph N/A   Overcast
11:15 PM 50.0 °F - 26.6 °F 40% 30.10 in 10.0 mi East 9.2 mph 17.3 mph N/A   Overcast
11:35 PM 50.0 °F - 26.6 °F 40% 30.10 in 10.0 mi ESE 10.4 mph 16.1 mph N/A   Overcast
11:55 PM 50.0 °F - 26.6 °F 40% 30.09 in 10.0 mi ESE 10.4 mph 16.1 mph N/A   Overcast